Deer Park, WA
on Tuesday, January 15, 2013

Tuesday
Previous Day Next Day
Daily Summary
 ActualAverageRecord
Temperature
Mean Temperature °F 27°F  
Max Temperature 27°F 33°F 44°F (2011)
Min Temperature 19°F 21°F -8°F (2005)
Degree Days
Heating Degree Days 42 38  
Month to date heating degree days 640 582  
Since 1 July heating degree days 3433 3809  
Cooling Degree Days 0 0  
Month to date cooling degree days 0 0  
Year to date cooling degree days 0 0  
Moisture
Dew Point 21°F   
Average Humidity 87    
Maximum Humidity 92    
Minimum Humidity 81    
Precipitation
Precipitation 0.00 in 0.09 in 0.34 in (2011)
Month to date precipitation 1.11 1.49  
Year to date precipitation 1.11 1.49  
Wind
Wind Speed 2 mph   
Max Wind Speed 7 mph   
Max Gust Speed 8 mph   
Visibility 7 miles   
Events     

Key: T is trace of precipitation, MM is missing value
Source: NWS Daily Summary
Time(PST)TemperatureDew PointHumidity Pressure Visibility Wind DirectionWind SpeedGust SpeedPrecipitationEvents Conditions
12:18 AM 21.2°F 19.4°F 93% 30.41 in 10.0 miles Calm Calm - N/A   Overcast
12:53 AM 19.9°F 18.0°F 92% 30.53 in 9.0 miles North 3.5 mph - N/A   Overcast
1:53 AM 19.9°F 18.0°F 92% 30.54 in 9.0 miles Calm Calm - N/A   Overcast
3:50 AM 21.2°F 19.4°F 93% 30.44 in 9.0 miles Calm Calm - N/A   Overcast
3:53 AM 21.0°F 19.9°F 96% 30.55 in 9.0 miles Calm Calm - N/A   Overcast
4:53 AM 21.0°F 19.0°F 92% 30.54 in 6.0 miles Calm Calm - N/A   Overcast
5:53 AM 21.0°F 19.9°F 96% 30.56 in 6.0 miles Calm Calm - N/A   Overcast
6:53 AM 21.0°F 19.0°F 92% 30.58 in 10.0 miles ENE 3.5 mph - N/A   Overcast
7:53 AM 21.9°F 19.9°F 92% 30.61 in 8.0 miles Calm Calm - N/A   Overcast
8:53 AM 23.0°F 19.9°F 88% 30.62 in 8.0 miles Calm Calm - N/A   Overcast
9:53 AM 24.1°F 21.0°F 88% 30.63 in 9.0 miles Calm Calm - N/A   Overcast
10:53 AM 24.1°F 21.0°F 88% 30.65 in 9.0 miles SE 4.6 mph - N/A   Overcast
11:14 AM 24.8°F 21.2°F 86% 30.55 in 8.0 miles SSE 5.8 mph - N/A   Overcast
11:53 AM 24.1°F 21.9°F 91% 30.64 in 7.0 miles SSW 3.5 mph - N/A   Overcast
12:53 PM 25.0°F 21.9°F 88% 30.64 in 6.0 miles SW 3.5 mph - N/A   Overcast
1:27 PM 24.8°F 21.2°F 86% 30.54 in 7.0 miles Calm Calm - N/A   Overcast
1:53 PM 26.1°F 21.9°F 84% 30.64 in 6.0 miles WNW 3.5 mph - N/A   Overcast
2:53 PM 26.1°F 21.9°F 84% 30.65 in 6.0 miles NNW 3.5 mph - N/A   Overcast
3:53 PM 26.1°F 21.9°F 84% 30.65 in 6.0 miles Calm Calm - N/A   Overcast
4:53 PM 26.1°F 23.0°F 88% 30.65 in 7.0 miles Calm Calm - N/A   Overcast
5:53 PM 26.1°F 23.0°F 88% 30.65 in 6.0 miles Calm Calm - N/A   Overcast
6:53 PM 26.1°F 24.1°F 92% 30.64 in 6.0 miles North 3.5 mph - N/A   Overcast
7:53 PM 26.1°F 25.0°F 96% 30.64 in 5.0 miles NE 3.5 mph - N/A   Overcast
8:53 PM 26.1°F 25.0°F 96% 30.63 in 5.0 miles NNE 4.6 mph - N/A   Overcast
9:53 PM 27.0°F 25.0°F 92% 30.61 in 6.0 miles NNE 3.5 mph - N/A   Overcast
10:53 PM 27.0°F 25.0°F 92% 30.60 in 7.0 miles Calm Calm - N/A   Overcast
11:53 PM 25.0°F 24.1°F 96% 30.60 in 5.0 miles Calm Calm - N/A   Overcast
Moon Phase
Jan. 15 Jan. 18 Jan. 26 Feb. 03 Feb. 10
Sunrise:07:34 AM (PST) Moon Rise:09:18 AM (PST)1/15
Sunset:04:24 PM (PST) Moon Set:09:45 PM (PST)1/15

Copyright © 2014 The Weather Underground, Inc.